User: anonymous   Login
Location: Unspecified
(0.0000°N, 0.0000°E)
Time: 19:01:17
(UTC+00:00)
Language:

Freja - Orbit

View from above orbital plane
View from above orbital plane
View from above satellite
View from above satellite

Ground track
Ground track

The orbit data is extracted from the following two-line orbital elements,

1 22161U 92064A   17084.86996739 -.00000075 +00000-0 +15044-4 0  9991
2 22161 062.9969 278.6011 0746002 310.8113 043.0448 13.30262319185351
Epoch (UTC): 25 March 2017 20:52:45
Eccentricity: 0.0746002
inclination: 62.9969°
perigee height: 584 km
apogee height: 1707 km
right ascension of ascending node: 278.6011°
argument of perigee: 310.8113°
revolutions per day: 13.30262319
mean anomaly at epoch: 43.0448°
orbit number at epoch: 18535

The dashed part of the orbit path shows where the satellite is in the earth's shadow,  

DLR